Weather History for Hot Springs, VA

Change the Weather History Date:

Monday, January 16, 2012

  Actual Average Record
Temperature  
Mean Temperature 27 °F -  
Max Temperature 37 °F 30 °F 51 °F (2007)
Min Temperature 19 °F 16 °F -5 °F (2009)
Degree Days  
Heating Degree Days 38    
Moisture  
Dew Point 19 °F    
Average Humidity 72    
Maximum Humidity 93    
Minimum Humidity 56    
Precipitation  
Precipitation 0.01 in - - ()
Sea Level Pressure  
Sea Level Pressure 30.29 in    
Wind  
Wind Speed 9 mph (SSW)    
Max Wind Speed 18 mph    
Max Gust Speed 24 mph    
Visibility 10 miles    
Events Rain , Snow    
Averages and records for this station are not official NWS values.
T = Trace of Precipitation, MM = Missing Value Source: NWS Daily Summary

Daily Weather History Graph

Daily Weather History Graph

Search for Another Location

Airport:

Trip Planner

Search our weather history database for the weather conditions in past years. The results will help you decide how hot, cold, wet, or windy it might be!

Date:

Astronomy

Jan. 16, 2012 Rise Set
Actual Time 7:33 AM EST 5:24 PM EST
Civil Twilight 7:05 AM EST 5:53 PM EST
Nautical Twilight 6:32 AM EST 6:25 PM EST
Astronomical Twilight 6:01 AM EST 6:57 PM EST
Moon 12:42 AM EST (1/16) 11:35 AM EST (1/16)
Length of Visible Light 10h 48m
Length of Day
9h 50m
Waning Gibbous, 46% of the Moon is Illuminated
Jan 16
Waning Gibbous
Jan 23
New
Jan 30
First Quarter
Feb 7
Full
Feb 14
Last Quarter

Hourly Weather History & Observations

Time (EST) Temp. Windchill Dew Point Humidity Pressure Visibility Wind Dir Wind Speed Gust Speed Precip Events Conditions
12:35 AM 19.4 °F 10.4 °F 10.4 °F 68% 30.36 in 10.0 mi South 6.9 mph - N/A   Clear
12:57 AM 19.4 °F 10.4 °F 12.2 °F 74% 30.36 in 10.0 mi South 6.9 mph - N/A   Clear
1:15 AM 19.4 °F 11.5 °F 12.2 °F 74% 30.34 in 10.0 mi South 5.8 mph - N/A   Clear
1:55 AM 19.4 °F 8.6 °F 12.2 °F 74% 30.34 in 10.0 mi South 9.2 mph - N/A   Clear
2:15 AM 19.4 °F 7.9 °F 12.2 °F 74% 30.35 in 10.0 mi SSW 10.4 mph 17.3 mph N/A   Clear
2:35 AM 19.4 °F 8.6 °F 12.2 °F 74% 30.35 in 10.0 mi SSW 9.2 mph 17.3 mph N/A   Clear
2:55 AM 19.4 °F 7.2 °F 12.2 °F 74% 30.35 in 10.0 mi SSW 11.5 mph 17.3 mph N/A   Clear
3:15 AM 19.4 °F 6.6 °F 12.2 °F 74% 30.35 in 10.0 mi SSW 12.7 mph 16.1 mph N/A   Clear
3:35 AM 19.4 °F 7.9 °F 12.2 °F 74% 30.35 in 10.0 mi South 10.4 mph - N/A   Clear
3:55 AM 21.2 °F 9.5 °F 14.0 °F 74% 30.35 in 10.0 mi SSW 11.5 mph - N/A   Clear
4:15 AM 19.4 °F 8.6 °F 12.2 °F 74% 30.35 in 10.0 mi SSW 9.2 mph - N/A   Clear
4:35 AM 19.4 °F 7.9 °F 12.2 °F 74% 30.35 in 10.0 mi SSW 10.4 mph - N/A   Clear
4:55 AM 19.4 °F 8.6 °F 12.2 °F 74% 30.34 in 10.0 mi South 9.2 mph - N/A   Clear
5:15 AM 19.4 °F 7.9 °F 12.2 °F 74% 30.33 in 10.0 mi South 10.4 mph 16.1 mph N/A   Clear
5:37 AM 19.4 °F 7.9 °F 12.2 °F 74% 30.33 in 10.0 mi South 10.4 mph - N/A   Clear
5:55 AM 19.4 °F 7.9 °F 12.2 °F 74% 30.34 in 10.0 mi SSW 10.4 mph - N/A   Clear
6:17 AM 21.2 °F 10.1 °F 14.0 °F 74% 30.34 in 10.0 mi South 10.4 mph - N/A   Clear
6:36 AM 21.2 °F 8.9 °F 14.0 °F 74% 30.34 in 10.0 mi SSW 12.7 mph 19.6 mph N/A   Clear
6:55 AM - - - N/A% 30.34 in 10.0 mi South 10.4 mph - N/A   Clear
7:15 AM 21.2 °F 8.9 °F 15.8 °F 80% 30.34 in 10.0 mi South 12.7 mph 16.1 mph N/A   Unknown
7:35 AM 21.2 °F 9.5 °F 15.8 °F 80% 30.35 in - SSW 11.5 mph 19.6 mph N/A   Clear
7:55 AM 21.2 °F 11.7 °F 15.8 °F 80% 30.34 in 10.0 mi SSW 8.1 mph - N/A   Clear
8:15 AM 21.2 °F 10.1 °F 15.8 °F 80% 30.34 in 10.0 mi South 10.4 mph - N/A   Unknown
8:35 AM 23.0 °F 15.8 °F 15.8 °F 74% 30.34 in - SSW 5.8 mph - N/A   Clear
9:16 AM 24.8 °F 16.1 °F 15.8 °F 69% 30.35 in 10.0 mi SSW 8.1 mph - N/A   Clear
9:36 AM 28.4 °F 21.2 °F 17.6 °F 64% 30.34 in 10.0 mi SSE 6.9 mph - N/A   Clear
10:17 AM 26.6 °F 21.2 °F 17.6 °F 69% 30.34 in 10.0 mi SSW 4.6 mph - N/A   Clear
10:36 AM 30.2 °F 26.7 °F 19.4 °F 64% 30.34 in 10.0 mi SSE 3.5 mph - N/A   Clear
11:15 AM 30.2 °F 22.6 °F 19.4 °F 64% 30.33 in 10.0 mi SW 8.1 mph - N/A   Mostly Cloudy
11:35 AM 30.2 °F 21.3 °F 17.6 °F 60% 30.31 in 10.0 mi SW 10.4 mph - N/A   Overcast
11:56 AM 33.8 °F 26.4 °F 19.4 °F 56% 30.31 in 10.0 mi SW 9.2 mph - N/A   Overcast
12:15 PM 32.0 °F 24.2 °F 19.4 °F 60% 30.30 in 10.0 mi WSW 9.2 mph - N/A   Overcast
12:36 PM 33.8 °F 27.0 °F 19.4 °F 56% 30.29 in 10.0 mi SW 8.1 mph - N/A   Mostly Cloudy
12:55 PM 30.2 °F 26.7 °F 19.4 °F 64% 30.28 in 10.0 mi South 3.5 mph - N/A   Mostly Cloudy
1:15 PM 32.0 °F 27.5 °F 21.2 °F 64% 30.27 in 10.0 mi SSE 4.6 mph - N/A   Scattered Clouds
1:37 PM 30.2 °F 25.4 °F 21.2 °F 69% 30.27 in 10.0 mi South 4.6 mph - N/A   Clear
1:55 PM 33.8 °F 27.7 °F 21.2 °F 60% 30.26 in 10.0 mi SSW 6.9 mph - N/A   Clear
2:15 PM 30.2 °F 23.4 °F 21.2 °F 69% 30.25 in 10.0 mi South 6.9 mph - N/A   Scattered Clouds
2:37 PM 30.2 °F 24.3 °F 21.2 °F 69% 30.24 in 10.0 mi SSE 5.8 mph - N/A   Overcast
2:55 PM 30.2 °F 21.9 °F 21.2 °F 69% 30.23 in 10.0 mi SSE 9.2 mph - N/A   Mostly Cloudy
3:17 PM 30.2 °F 24.3 °F 21.2 °F 69% 30.24 in 10.0 mi South 5.8 mph - N/A   Mostly Cloudy
3:55 PM 30.2 °F 19.8 °F 21.2 °F 69% 30.24 in 10.0 mi South 13.8 mph 17.3 mph N/A   Mostly Cloudy
4:15 PM 30.2 °F 20.2 °F 21.2 °F 69% 30.24 in 10.0 mi South 12.7 mph 18.4 mph N/A   Mostly Cloudy
4:35 PM 30.2 °F 20.2 °F 23.0 °F 75% 30.24 in 10.0 mi SSW 12.7 mph - N/A   Overcast
4:55 PM 30.2 °F 20.8 °F 23.0 °F 75% 30.23 in 10.0 mi South 11.5 mph - N/A Snow Light Snow
5:15 PM 30.2 °F 21.3 °F 23.0 °F 75% 30.22 in 10.0 mi South 10.4 mph 16.1 mph N/A   Overcast
5:55 PM 30.2 °F 20.2 °F 24.8 °F 80% 30.22 in 10.0 mi South 12.7 mph 17.3 mph N/A   Overcast
6:15 PM 30.2 °F 20.2 °F 24.8 °F 80% 30.23 in 10.0 mi South 12.7 mph 16.1 mph N/A   Overcast
6:35 PM 30.2 °F 21.9 °F 28.4 °F 93% 30.22 in 5.0 mi South 9.2 mph - 0.01 in   Overcast
6:55 PM 30.2 °F 21.3 °F 26.6 °F 86% 30.20 in 10.0 mi South 10.4 mph 17.3 mph N/A   Overcast
7:15 PM 32.0 °F 24.8 °F 26.6 °F 80% 30.20 in 10.0 mi SSW 8.1 mph - N/A   Overcast
7:35 PM 32.0 °F 24.2 °F 26.6 °F 80% 30.20 in 10.0 mi SSW 9.2 mph - N/A   Overcast
7:57 PM 32.0 °F 24.2 °F 28.4 °F 87% 30.20 in 10.0 mi SSW 9.2 mph - N/A Rain Rain
8:15 PM 30.2 °F 21.3 °F 26.6 °F 86% 30.19 in 10.0 mi SSW 10.4 mph 16.1 mph N/A   Overcast
8:35 PM 33.8 °F 26.4 °F 26.6 °F 75% 30.18 in 10.0 mi SW 9.2 mph 16.1 mph N/A   Overcast
8:55 PM 35.6 °F 27.5 °F 26.6 °F 70% 30.18 in 10.0 mi SW 11.5 mph 19.6 mph N/A   Overcast
9:15 PM 35.6 °F 26.2 °F 26.6 °F 70% 30.17 in 10.0 mi SW 15.0 mph 20.7 mph N/A   Overcast
9:55 PM 35.6 °F 25.5 °F 26.6 °F 70% 30.16 in 10.0 mi SW 17.3 mph 24.2 mph N/A   Overcast
10:15 PM 37.4 °F 27.5 °F 26.6 °F 65% 30.15 in 10.0 mi SW 18.4 mph 21.9 mph N/A   Overcast
10:36 PM 37.4 °F 28.5 °F 26.6 °F 65% 30.15 in 10.0 mi SW 15.0 mph 23.0 mph N/A   Overcast
10:55 PM 37.4 °F 27.5 °F 26.6 °F 65% 30.15 in 10.0 mi SW 18.4 mph 21.9 mph N/A   Overcast
11:15 PM 37.4 °F 27.8 °F 26.6 °F 65% 30.14 in 10.0 mi SW 17.3 mph - N/A   Overcast
11:35 PM 37.4 °F 28.2 °F 26.6 °F 65% 30.13 in 10.0 mi WSW 16.1 mph 28.8 mph N/A   Mostly Cloudy